Demand trends

From www.emi.ea.govt.nz provided by the Electricity Authority (New Zealand)
Run at: 20240519184929

Parameters
Date range,06 May 2024 - 06 May 2024
Region type,New Zealand
Time scale,Trading period
Show,GWh

Period start,Period end,Region ID,Region,Demand (GWh),Demand ($)
06/05/2024 00:00:00,06/05/2024 00:30:00,NZ,New Zealand,1.731,298223.45
06/05/2024 00:30:00,06/05/2024 01:00:00,NZ,New Zealand,1.675,282933.49
06/05/2024 01:00:00,06/05/2024 01:30:00,NZ,New Zealand,1.654,331837.73
06/05/2024 01:30:00,06/05/2024 02:00:00,NZ,New Zealand,1.627,310098.91
06/05/2024 02:00:00,06/05/2024 02:30:00,NZ,New Zealand,1.610,337073.16
06/05/2024 02:30:00,06/05/2024 03:00:00,NZ,New Zealand,1.596,296199.53
06/05/2024 03:00:00,06/05/2024 03:30:00,NZ,New Zealand,1.595,369657.41
06/05/2024 03:30:00,06/05/2024 04:00:00,NZ,New Zealand,1.603,362620.84
06/05/2024 04:00:00,06/05/2024 04:30:00,NZ,New Zealand,1.625,396317.16
06/05/2024 04:30:00,06/05/2024 05:00:00,NZ,New Zealand,1.667,407334.77
06/05/2024 05:00:00,06/05/2024 05:30:00,NZ,New Zealand,1.775,417106.55
06/05/2024 05:30:00,06/05/2024 06:00:00,NZ,New Zealand,1.914,450173.30
06/05/2024 06:00:00,06/05/2024 06:30:00,NZ,New Zealand,2.139,502363.75
06/05/2024 06:30:00,06/05/2024 07:00:00,NZ,New Zealand,2.358,593723.89
06/05/2024 07:00:00,06/05/2024 07:30:00,NZ,New Zealand,2.545,670033.07
06/05/2024 07:30:00,06/05/2024 08:00:00,NZ,New Zealand,2.670,736492.39
06/05/2024 08:00:00,06/05/2024 08:30:00,NZ,New Zealand,2.666,725023.21
06/05/2024 08:30:00,06/05/2024 09:00:00,NZ,New Zealand,2.583,650348.10
06/05/2024 09:00:00,06/05/2024 09:30:00,NZ,New Zealand,2.552,626957.66
06/05/2024 09:30:00,06/05/2024 10:00:00,NZ,New Zealand,2.483,591624.02
06/05/2024 10:00:00,06/05/2024 10:30:00,NZ,New Zealand,2.462,599214.81
06/05/2024 10:30:00,06/05/2024 11:00:00,NZ,New Zealand,2.443,598299.32
06/05/2024 11:00:00,06/05/2024 11:30:00,NZ,New Zealand,2.418,596602.01
06/05/2024 11:30:00,06/05/2024 12:00:00,NZ,New Zealand,2.373,578264.59
06/05/2024 12:00:00,06/05/2024 12:30:00,NZ,New Zealand,2.357,578754.63
06/05/2024 12:30:00,06/05/2024 13:00:00,NZ,New Zealand,2.340,569917.91
06/05/2024 13:00:00,06/05/2024 13:30:00,NZ,New Zealand,2.335,561693.70
06/05/2024 13:30:00,06/05/2024 14:00:00,NZ,New Zealand,2.324,557296.82
06/05/2024 14:00:00,06/05/2024 14:30:00,NZ,New Zealand,2.330,559619.01
06/05/2024 14:30:00,06/05/2024 15:00:00,NZ,New Zealand,2.329,558792.12
06/05/2024 15:00:00,06/05/2024 15:30:00,NZ,New Zealand,2.358,556747.27
06/05/2024 15:30:00,06/05/2024 16:00:00,NZ,New Zealand,2.425,610396.43
06/05/2024 16:00:00,06/05/2024 16:30:00,NZ,New Zealand,2.503,650940.91
06/05/2024 16:30:00,06/05/2024 17:00:00,NZ,New Zealand,2.549,681052.83
06/05/2024 17:00:00,06/05/2024 17:30:00,NZ,New Zealand,2.651,694136.09
06/05/2024 17:30:00,06/05/2024 18:00:00,NZ,New Zealand,2.797,908870.62
06/05/2024 18:00:00,06/05/2024 18:30:00,NZ,New Zealand,2.825,1164254.19
06/05/2024 18:30:00,06/05/2024 19:00:00,NZ,New Zealand,2.793,777886.52
06/05/2024 19:00:00,06/05/2024 19:30:00,NZ,New Zealand,2.723,740224.78
06/05/2024 19:30:00,06/05/2024 20:00:00,NZ,New Zealand,2.647,666971.63
06/05/2024 20:00:00,06/05/2024 20:30:00,NZ,New Zealand,2.558,418789.95
06/05/2024 20:30:00,06/05/2024 21:00:00,NZ,New Zealand,2.493,589022.35
06/05/2024 21:00:00,06/05/2024 21:30:00,NZ,New Zealand,2.449,582403.41
06/05/2024 21:30:00,06/05/2024 22:00:00,NZ,New Zealand,2.354,524377.54
06/05/2024 22:00:00,06/05/2024 22:30:00,NZ,New Zealand,2.222,443427.71
06/05/2024 22:30:00,06/05/2024 23:00:00,NZ,New Zealand,2.098,368135.77
06/05/2024 23:00:00,06/05/2024 23:30:00,NZ,New Zealand,2.041,456571.57
06/05/2024 23:30:00,07/05/2024 00:00:00,NZ,New Zealand,1.944,453800.78
